TAM4758 SBCN-SBPJ

Flight info

Callsign TAM4758
Flight time 1h 17m
Altitude 37000
Route GUTIL UZ25 SEKPO UZ26 LIBEC
Aircraft A319/L-L/2000

Departure

Time 2026-05-07 23:57
Airport Nelson Ribeiro Guimarães Airport (SBCN)

Arrival

Time 2026-05-08 01:14
Airport Brigadeiro Lysias Rodrigues Airport (SBPJ)
Time Latitude Longitude Altitude Speed Heading
2026-05-07 23:34 -17.72620 -48.61521 2322 ft 0 kts 336°
2026-05-07 23:50 -17.72629 -48.61517 2322 ft 2 kts 336°
2026-05-07 23:51 -17.72642 -48.61510 2322 ft 2 kts 336°
2026-05-07 23:51 -17.72656 -48.61504 2322 ft 1 kts 349°
2026-05-07 23:51 -17.72670 -48.61507 2322 ft 2 kts 40°
2026-05-07 23:51 -17.72676 -48.61514 2322 ft 1 kts 66°
2026-05-07 23:52 -17.72678 -48.61520 2322 ft 0 kts 68°
2026-05-07 23:54 -17.72677 -48.61518 2322 ft 0 kts 68°
2026-05-07 23:54 -17.72675 -48.61514 2322 ft 0 kts 68°
2026-05-07 23:54 -17.72665 -48.61488 2321 ft 8 kts 68°
2026-05-07 23:54 -17.72691 -48.61411 2317 ft 18 kts 155°
2026-05-07 23:55 -17.72818 -48.61386 2314 ft 19 kts 228°
2026-05-07 23:55 -17.72885 -48.61478 2317 ft 14 kts 196°
2026-05-07 23:55 -17.72884 -48.61522 2319 ft 5 kts 24°
2026-05-07 23:55 -17.72878 -48.61513 2319 ft 0 kts 68°
2026-05-07 23:56 -17.72842 -48.61425 2315 ft 45 kts 66°
2026-05-07 23:56 -17.72621 -48.60889 2292 ft 113 kts 66°
2026-05-07 23:56 -17.72225 -48.59943 2397 ft 156 kts 66°
2026-05-07 23:57 -17.71777 -48.58900 2898 ft 162 kts 65°
2026-05-07 23:57 -17.71228 -48.57881 3565 ft 162 kts 47°
2026-05-07 23:57 -17.70233 -48.57441 4133 ft 163 kts 356°
2026-05-07 23:57 -17.69206 -48.57994 4458 ft 178 kts 314°
2026-05-07 23:58 -17.68368 -48.58997 4844 ft 189 kts 315°
2026-05-07 23:58 -17.67409 -48.60016 5213 ft 203 kts 318°
2026-05-07 23:58 -17.66326 -48.61076 5495 ft 226 kts 319°
2026-05-07 23:58 -17.65118 -48.62229 5916 ft 245 kts 319°
2026-05-07 23:59 -17.63802 -48.63478 6357 ft 263 kts 320°
2026-05-07 23:59 -17.62246 -48.64536 6843 ft 277 kts 342°
2026-05-07 23:59 -17.60342 -48.64755 7626 ft 280 kts
2026-05-07 23:59 -17.58493 -48.64175 8503 ft 281 kts 21°
2026-05-08 00:00 -17.56677 -48.63426 9321 ft 284 kts 22°
2026-05-08 00:00 -17.54839 -48.62656 10123 ft 288 kts 22°
2026-05-08 00:00 -17.52973 -48.61878 10919 ft 291 kts 22°
2026-05-08 00:00 -17.51089 -48.61099 11691 ft 295 kts 22°
2026-05-08 00:01 -17.49186 -48.60316 12429 ft 298 kts 22°
2026-05-08 00:01 -17.47251 -48.59522 12932 ft 310 kts 22°
2026-05-08 00:01 -17.45192 -48.58678 13421 ft 321 kts 22°
2026-05-08 00:01 -17.43117 -48.57830 14139 ft 325 kts 22°
2026-05-08 00:02 -17.41009 -48.56970 14893 ft 327 kts 22°
2026-05-08 00:02 -17.38887 -48.56105 15614 ft 329 kts 22°
2026-05-08 00:02 -17.36771 -48.55242 16304 ft 332 kts 21°
2026-05-08 00:02 -17.34612 -48.54363 16985 ft 335 kts 21°
2026-05-08 00:03 -17.32434 -48.53477 17665 ft 338 kts 21°
2026-05-08 00:03 -17.30235 -48.52582 18330 ft 341 kts 21°
2026-05-08 00:03 -17.28035 -48.51688 18970 ft 344 kts 21°
2026-05-08 00:03 -17.25796 -48.50777 19593 ft 347 kts 21°
2026-05-08 00:04 -17.23533 -48.49858 20207 ft 350 kts 20°
2026-05-08 00:04 -17.21277 -48.48941 20796 ft 354 kts 20°
2026-05-08 00:04 -17.18965 -48.48003 21370 ft 357 kts 20°
2026-05-08 00:04 -17.16645 -48.47060 21931 ft 360 kts 20°
2026-05-08 00:05 -17.14327 -48.46120 22472 ft 363 kts 20°
2026-05-08 00:05 -17.11932 -48.45148 23002 ft 367 kts 20°
2026-05-08 00:05 -17.09490 -48.44159 23516 ft 371 kts 24°
2026-05-08 00:05 -17.07059 -48.43194 23794 ft 381 kts 22°
2026-05-08 00:06 -17.04565 -48.42184 24058 ft 391 kts 23°
2026-05-08 00:06 -17.02001 -48.41139 24514 ft 395 kts 22°
2026-05-08 00:06 -16.99438 -48.40096 25037 ft 397 kts 22°
2026-05-08 00:06 -16.96869 -48.39052 25542 ft 399 kts 22°
2026-05-08 00:07 -16.94281 -48.38002 26044 ft 401 kts 22°
2026-05-08 00:07 -16.91680 -48.36948 26494 ft 404 kts 22°
2026-05-08 00:07 -16.89046 -48.35882 26910 ft 407 kts 22°
2026-05-08 00:07 -16.86402 -48.34816 27318 ft 410 kts 22°
2026-05-08 00:08 -16.83736 -48.33731 27724 ft 413 kts 22°
2026-05-08 00:08 -16.81048 -48.32634 28123 ft 416 kts 22°
2026-05-08 00:08 -16.78346 -48.31541 28513 ft 419 kts 21°
2026-05-08 00:08 -16.75579 -48.30590 28895 ft 422 kts 16°
2026-05-08 00:09 -16.72714 -48.29876 29273 ft 424 kts 11°
2026-05-08 00:09 -16.69817 -48.29426 29635 ft 427 kts
2026-05-08 00:09 -16.66851 -48.29125 29999 ft 429 kts
2026-05-08 00:09 -16.63896 -48.28855 30349 ft 432 kts
2026-05-08 00:10 -16.60895 -48.28583 30697 ft 434 kts
2026-05-08 00:10 -16.57885 -48.28307 31041 ft 436 kts
2026-05-08 00:10 -16.54855 -48.28026 31374 ft 439 kts
2026-05-08 00:10 -16.51801 -48.27741 31700 ft 441 kts
2026-05-08 00:11 -16.48781 -48.27457 32017 ft 443 kts
2026-05-08 00:11 -16.45697 -48.27166 32336 ft 445 kts
2026-05-08 00:11 -16.42612 -48.26875 32733 ft 445 kts
2026-05-08 00:11 -16.39588 -48.26589 33173 ft 443 kts
2026-05-08 00:12 -16.36521 -48.26300 33607 ft 441 kts
2026-05-08 00:12 -16.33470 -48.26012 34014 ft 440 kts
2026-05-08 00:12 -16.30446 -48.25726 34396 ft 439 kts
2026-05-08 00:12 -16.27397 -48.25439 34766 ft 439 kts
2026-05-08 00:13 -16.24364 -48.25153 35121 ft 438 kts
2026-05-08 00:13 -16.21360 -48.24870 35427 ft 438 kts
2026-05-08 00:13 -16.18341 -48.24585 35692 ft 439 kts
2026-05-08 00:13 -16.15286 -48.24298 35947 ft 441 kts
2026-05-08 00:14 -16.12219 -48.24009 36200 ft 442 kts
2026-05-08 00:14 -16.09200 -48.23725 36440 ft 443 kts
2026-05-08 00:14 -16.06126 -48.23435 36668 ft 444 kts
2026-05-08 00:14 -16.03033 -48.23145 36816 ft 446 kts
2026-05-08 00:15 -15.96862 -48.22564 36828 ft 447 kts
2026-05-08 00:15 -15.90686 -48.21984 36831 ft 447 kts
2026-05-08 00:16 -15.84502 -48.21405 36832 ft 447 kts
2026-05-08 00:16 -15.78324 -48.20826 36832 ft 447 kts
2026-05-08 00:17 -15.72147 -48.20249 36832 ft 447 kts
2026-05-08 00:17 -15.65995 -48.19675 36832 ft 447 kts
2026-05-08 00:18 -15.59820 -48.19099 36832 ft 447 kts
2026-05-08 00:18 -15.53664 -48.18525 36832 ft 447 kts
2026-05-08 00:19 -15.47487 -48.18152 36832 ft 446 kts 359°
2026-05-08 00:19 -15.41282 -48.18304 36832 ft 446 kts 357°
2026-05-08 00:20 -15.35029 -48.18512 36832 ft 446 kts 357°
2026-05-08 00:20 -15.28815 -48.18712 36832 ft 446 kts 357°
2026-05-08 00:21 -15.22648 -48.18907 36832 ft 446 kts 357°
2026-05-08 00:21 -15.16474 -48.19102 36832 ft 446 kts 357°
2026-05-08 00:22 -15.10277 -48.19297 36904 ft 447 kts 357°
2026-05-08 00:22 -15.04057 -48.19493 37021 ft 446 kts 357°
2026-05-08 00:23 -14.97872 -48.19687 37074 ft 446 kts 357°
2026-05-08 00:23 -14.91703 -48.19881 37094 ft 447 kts 358°
2026-05-08 00:24 -14.85471 -48.20056 37101 ft 448 kts 358°
2026-05-08 00:24 -14.79283 -48.20226 37103 ft 448 kts 358°
2026-05-08 00:25 -14.73053 -48.20398 37104 ft 448 kts 358°
2026-05-08 00:25 -14.66870 -48.20570 37104 ft 448 kts 358°
2026-05-08 00:26 -14.60683 -48.20742 37104 ft 448 kts 358°
2026-05-08 00:26 -14.54454 -48.20916 37104 ft 448 kts 358°
2026-05-08 00:27 -14.48265 -48.21089 37104 ft 448 kts 358°
2026-05-08 00:27 -14.42067 -48.21262 37104 ft 448 kts 358°
2026-05-08 00:28 -14.35841 -48.21435 37104 ft 448 kts 358°
2026-05-08 00:28 -14.29649 -48.21608 37104 ft 448 kts 358°
2026-05-08 00:29 -14.23424 -48.21781 37104 ft 448 kts 358°
2026-05-08 00:29 -14.17237 -48.21953 37104 ft 447 kts 358°
2026-05-08 00:30 -14.11025 -48.22126 37104 ft 447 kts 358°
2026-05-08 00:30 -14.04818 -48.22298 37104 ft 447 kts 358°
2026-05-08 00:31 -13.98612 -48.22471 37104 ft 447 kts 358°
2026-05-08 00:31 -13.92434 -48.22642 37104 ft 447 kts 358°
2026-05-08 00:32 -13.86201 -48.22815 37103 ft 447 kts 358°
2026-05-08 00:32 -13.80011 -48.22985 37104 ft 447 kts 358°
2026-05-08 00:33 -13.73784 -48.23157 37104 ft 447 kts 358°
2026-05-08 00:33 -13.67609 -48.23328 37104 ft 447 kts 358°
2026-05-08 00:34 -13.61387 -48.23500 37104 ft 447 kts 358°
2026-05-08 00:34 -13.55199 -48.23672 37104 ft 447 kts 358°
2026-05-08 00:35 -13.49009 -48.23843 37104 ft 447 kts 358°
2026-05-08 00:35 -13.42810 -48.24014 37104 ft 447 kts 358°
2026-05-08 00:36 -13.36621 -48.24185 37104 ft 447 kts 358°
2026-05-08 00:36 -13.30408 -48.24357 37104 ft 447 kts 358°
2026-05-08 00:37 -13.24200 -48.24529 37104 ft 447 kts 358°
2026-05-08 00:38 -13.14930 -48.24784 37104 ft 447 kts 358°
2026-05-08 00:38 -13.08706 -48.24957 37101 ft 448 kts 358°
2026-05-08 00:39 -13.02460 -48.25134 37071 ft 451 kts 359°
2026-05-08 00:39 -12.96217 -48.25311 37017 ft 453 kts 360°
2026-05-08 00:40 -12.89938 -48.25480 36962 ft 451 kts 360°
2026-05-08 00:40 -12.83644 -48.25647 36932 ft 451 kts 360°
2026-05-08 00:41 -12.77381 -48.25817 36921 ft 451 kts 360°
2026-05-08 00:41 -12.71119 -48.25989 36917 ft 451 kts 360°
2026-05-08 00:42 -12.64873 -48.26161 36915 ft 451 kts 360°
2026-05-08 00:42 -12.58647 -48.26332 36915 ft 451 kts 360°
2026-05-08 00:43 -12.52356 -48.26505 36915 ft 451 kts 360°
2026-05-08 00:43 -12.46112 -48.26677 36915 ft 451 kts 360°
2026-05-08 00:44 -12.39835 -48.26848 36915 ft 451 kts 360°
2026-05-08 00:44 -12.33620 -48.27016 36915 ft 451 kts 360°
2026-05-08 00:45 -12.27326 -48.27187 36884 ft 451 kts 360°
2026-05-08 00:45 -12.24150 -48.27273 36200 ft 457 kts 360°
2026-05-08 00:45 -12.20984 -48.27359 35495 ft 459 kts 360°
2026-05-08 00:45 -12.17789 -48.27446 34815 ft 461 kts 360°
2026-05-08 00:46 -12.14628 -48.27532 34151 ft 462 kts 360°
2026-05-08 00:46 -12.11421 -48.27619 33479 ft 463 kts 360°
2026-05-08 00:46 -12.08180 -48.27708 32806 ft 463 kts 360°
2026-05-08 00:46 -12.04987 -48.27795 32146 ft 464 kts 360°
2026-05-08 00:47 -12.01744 -48.27883 31508 ft 463 kts 360°
2026-05-08 00:47 -11.98511 -48.27972 31074 ft 457 kts 360°
2026-05-08 00:47 -11.95354 -48.28058 30638 ft 452 kts 360°
2026-05-08 00:47 -11.92239 -48.28143 30195 ft 447 kts 360°
2026-05-08 00:48 -11.89141 -48.28228 29751 ft 442 kts 360°
2026-05-08 00:48 -11.86078 -48.28311 29306 ft 437 kts 360°
2026-05-08 00:48 -11.83069 -48.28393 28870 ft 433 kts 360°
2026-05-08 00:48 -11.80077 -48.28474 28429 ft 428 kts
2026-05-08 00:49 -11.77120 -48.28555 27997 ft 424 kts
2026-05-08 00:49 -11.74221 -48.28634 27571 ft 420 kts
2026-05-08 00:49 -11.71325 -48.28713 27142 ft 416 kts
2026-05-08 00:49 -11.68449 -48.28791 26718 ft 412 kts
2026-05-08 00:50 -11.65596 -48.28868 26298 ft 408 kts
2026-05-08 00:50 -11.62804 -48.28944 25884 ft 404 kts
2026-05-08 00:50 -11.60003 -48.29021 25467 ft 401 kts
2026-05-08 00:50 -11.57235 -48.29097 25053 ft 397 kts
2026-05-08 00:51 -11.54493 -48.29172 24648 ft 394 kts
2026-05-08 00:51 -11.51762 -48.29247 24239 ft 391 kts
2026-05-08 00:51 -11.49066 -48.29322 23833 ft 388 kts
2026-05-08 00:51 -11.46376 -48.29395 23427 ft 385 kts
2026-05-08 00:52 -11.43747 -48.29468 23030 ft 382 kts
2026-05-08 00:52 -11.41083 -48.29541 22623 ft 379 kts
2026-05-08 00:52 -11.38448 -48.29614 22225 ft 377 kts
2026-05-08 00:52 -11.35840 -48.29686 21827 ft 374 kts
2026-05-08 00:53 -11.33270 -48.29756 21433 ft 372 kts
2026-05-08 00:53 -11.30700 -48.29956 21019 ft 372 kts 349°
2026-05-08 00:53 -11.28266 -48.30821 20624 ft 371 kts 332°
2026-05-08 00:53 -11.26159 -48.32323 20243 ft 370 kts 321°
2026-05-08 00:54 -11.24237 -48.34013 19859 ft 368 kts 319°
2026-05-08 00:54 -11.22326 -48.35740 19472 ft 367 kts 319°
2026-05-08 00:54 -11.20421 -48.37455 19086 ft 365 kts 319°
2026-05-08 00:54 -11.18513 -48.39156 18699 ft 364 kts 319°
2026-05-08 00:55 -11.16633 -48.40821 18318 ft 362 kts 319°
2026-05-08 00:55 -11.14730 -48.42498 17928 ft 361 kts 319°
2026-05-08 00:55 -11.12830 -48.44170 17539 ft 359 kts 320°
2026-05-08 00:55 -11.10941 -48.45829 17153 ft 358 kts 320°
2026-05-08 00:56 -11.09079 -48.47464 16768 ft 356 kts 320°
2026-05-08 00:56 -11.07212 -48.49101 16381 ft 355 kts 320°
2026-05-08 00:56 -11.05349 -48.50736 15992 ft 353 kts 320°
2026-05-08 00:56 -11.03496 -48.52361 15605 ft 352 kts 320°
2026-05-08 00:57 -11.01637 -48.53991 15222 ft 350 kts 320°
2026-05-08 00:57 -10.99800 -48.55602 14848 ft 348 kts 320°
2026-05-08 00:57 -10.97979 -48.57197 14481 ft 346 kts 320°
2026-05-08 00:57 -10.96169 -48.58783 14115 ft 344 kts 320°
2026-05-08 00:58 -10.94365 -48.60364 13749 ft 341 kts 320°
2026-05-08 00:58 -10.92579 -48.61917 13382 ft 339 kts 322°
2026-05-08 00:58 -10.90534 -48.63061 12986 ft 335 kts 344°
2026-05-08 00:58 -10.88264 -48.63340 12616 ft 330 kts
2026-05-08 00:59 -10.85971 -48.63191 12254 ft 327 kts
2026-05-08 00:59 -10.83720 -48.63003 11883 ft 326 kts
2026-05-08 00:59 -10.81468 -48.62822 11502 ft 324 kts
2026-05-08 00:59 -10.79246 -48.62653 11122 ft 323 kts
2026-05-08 01:00 -10.77014 -48.62491 10889 ft 316 kts
2026-05-08 01:00 -10.74875 -48.62342 10840 ft 303 kts
2026-05-08 01:00 -10.72826 -48.62201 10785 ft 291 kts
2026-05-08 01:00 -10.70835 -48.62066 10638 ft 283 kts
2026-05-08 01:01 -10.68880 -48.61933 10385 ft 279 kts
2026-05-08 01:01 -10.66957 -48.61803 10117 ft 276 kts
2026-05-08 01:01 -10.65053 -48.61675 9744 ft 277 kts
2026-05-08 01:01 -10.63130 -48.61545 9408 ft 277 kts
2026-05-08 01:02 -10.61236 -48.61417 9097 ft 275 kts
2026-05-08 01:02 -10.59312 -48.61288 8789 ft 274 kts
2026-05-08 01:02 -10.57421 -48.61161 8490 ft 272 kts
2026-05-08 01:02 -10.55560 -48.61036 8197 ft 270 kts
2026-05-08 01:03 -10.53687 -48.60909 7903 ft 269 kts
2026-05-08 01:03 -10.51827 -48.60783 7612 ft 267 kts
2026-05-08 01:03 -10.49996 -48.60659 7326 ft 265 kts
2026-05-08 01:03 -10.48162 -48.60525 7041 ft 264 kts
2026-05-08 01:04 -10.46345 -48.60390 6759 ft 262 kts
2026-05-08 01:04 -10.44535 -48.60256 6477 ft 260 kts
2026-05-08 01:04 -10.42739 -48.60124 6197 ft 258 kts
2026-05-08 01:04 -10.40969 -48.59994 5922 ft 257 kts
2026-05-08 01:05 -10.39196 -48.59865 5647 ft 255 kts
2026-05-08 01:05 -10.37428 -48.59737 5372 ft 253 kts
2026-05-08 01:05 -10.35668 -48.59609 5100 ft 252 kts
2026-05-08 01:05 -10.33931 -48.59483 4831 ft 250 kts
2026-05-08 01:06 -10.32221 -48.59359 4566 ft 248 kts
2026-05-08 01:06 -10.30493 -48.59233 4298 ft 247 kts
2026-05-08 01:06 -10.28795 -48.59110 4064 ft 244 kts
2026-05-08 01:06 -10.27127 -48.58989 4012 ft 233 kts
2026-05-08 01:07 -10.25585 -48.58782 3991 ft 219 kts 22°
2026-05-08 01:07 -10.24433 -48.57890 3976 ft 204 kts 54°
2026-05-08 01:07 -10.23620 -48.56746 3993 ft 193 kts 56°
2026-05-08 01:07 -10.22846 -48.55631 4032 ft 189 kts 56°
2026-05-08 01:08 -10.22113 -48.54596 4065 ft 173 kts 55°
2026-05-08 01:08 -10.21442 -48.53661 4022 ft 157 kts 55°
2026-05-08 01:08 -10.20806 -48.52781 3949 ft 152 kts 55°
2026-05-08 01:08 -10.20176 -48.51913 3758 ft 151 kts 57°
2026-05-08 01:09 -10.19777 -48.50969 3558 ft 142 kts 82°
2026-05-08 01:09 -10.19836 -48.50031 3396 ft 131 kts 108°
2026-05-08 01:09 -10.20247 -48.49200 3363 ft 131 kts 122°
2026-05-08 01:09 -10.20748 -48.48432 3300 ft 131 kts 124°
2026-05-08 01:10 -10.21263 -48.47664 3228 ft 130 kts 124°
2026-05-08 01:10 -10.21774 -48.46898 3148 ft 130 kts 124°
2026-05-08 01:10 -10.22277 -48.46139 3057 ft 130 kts 123°
2026-05-08 01:10 -10.22787 -48.45368 2820 ft 130 kts 123°
2026-05-08 01:11 -10.23284 -48.44614 2642 ft 129 kts 123°
2026-05-08 01:11 -10.23783 -48.43857 2470 ft 129 kts 123°
2026-05-08 01:11 -10.24281 -48.43102 2296 ft 129 kts 123°
2026-05-08 01:11 -10.24781 -48.42342 2122 ft 128 kts 124°
2026-05-08 01:12 -10.25271 -48.41598 1953 ft 128 kts 124°
2026-05-08 01:12 -10.25746 -48.40877 1790 ft 128 kts 124°
2026-05-08 01:12 -10.26241 -48.40125 1619 ft 127 kts 124°
2026-05-08 01:12 -10.26733 -48.39378 1450 ft 127 kts 124°
2026-05-08 01:13 -10.27218 -48.38641 1284 ft 127 kts 124°
2026-05-08 01:13 -10.27711 -48.37892 1114 ft 126 kts 124°
2026-05-08 01:13 -10.28206 -48.37152 925 ft 126 kts 124°
2026-05-08 01:13 -10.28685 -48.36433 787 ft 120 kts 124°
2026-05-08 01:14 -10.29077 -48.35823 781 ft 77 kts 123°
2026-05-08 01:14 -10.29281 -48.35513 780 ft 26 kts 144°
2026-05-08 01:14 -10.29327 -48.35543 781 ft 6 kts 216°
2026-05-08 01:14 -10.29366 -48.35566 781 ft 6 kts 209°
2026-05-08 01:15 -10.29409 -48.35591 781 ft 7 kts 210°
2026-05-08 01:15 -10.29454 -48.35619 781 ft 7 kts 220°
2026-05-08 01:15 -10.29464 -48.35669 780 ft 8 kts 307°
2026-05-08 01:15 -10.29427 -48.35714 780 ft 8 kts 309°
2026-05-08 01:16 -10.29433 -48.35755 780 ft 7 kts 218°
2026-05-08 01:16 -10.29462 -48.35775 780 ft 2 kts 212°
2026-05-08 01:16 -10.29463 -48.35775 780 ft 0 kts 212°